| time (UTC) | temp F | wind direction | speed MPH | gust MPH | rain 1hr in | rain 24hr in | rain mn in | humidity % | barometer mb |
| 20260906061540 | 59 | 45 | 1.0 | 3.0 | 0.00 | 0.00 | 0.00 | 55 | 1014.6 |
| 20260906060520 | 59 | 45 | 1.0 | 2.0 | 0.00 | 0.00 | 0.00 | 57 | 1014.5 |
| 20260906055540 | 59 | 23 | 1.0 | 3.0 | 0.00 | 0.00 | 0.00 | 58 | 1014.7 |
| 20260906054520 | 59 | 0.0 | 3.0 | 0.00 | 0.00 | 0.00 | 58 | 1014.6 | |
| 20260906053520 | 60 | 0.0 | 0.0 | 0.00 | 0.00 | 0.00 | 57 | 1014.8 | |
| 20260906052600 | 60 | 45 | 1.0 | 3.0 | 0.00 | 0.00 | 0.00 | 57 | 1014.8 |
| 20260906051520 | 60 | 0 | 4.0 | 7.0 | 0.00 | 0.00 | 0.00 | 55 | 1014.7 |
| 20260906050540 | 61 | 338 | 4.0 | 6.0 | 0.00 | 0.00 | 0.00 | 55 | 1014.7 |
| 20260906045519 | 60 | 338 | 4.0 | 7.0 | 0.00 | 0.00 | 0.00 | 56 | 1014.6 |
| 20260906044520 | 61 | 338 | 4.0 | 5.0 | 0.00 | 0.00 | 0.00 | 56 | 1014.7 |
| 20260906043540 | 62 | 293 | 2.0 | 8.0 | 0.00 | 0.00 | 0.00 | 54 | 1014.7 |
| 20260906042520 | 61 | 0.0 | 0.0 | 0.00 | 0.00 | 0.00 | 57 | 1014.7 | |
| 20260906041519 | 61 | 248 | 1.0 | 3.0 | 0.00 | 0.00 | 0.00 | 58 | 1014.8 |
| 20260906040519 | 61 | 248 | 2.0 | 4.0 | 0.00 | 0.00 | 0.00 | 59 | 1014.7 |
| 20260906035541 | 62 | 0.0 | 2.0 | 0.00 | 0.00 | 0.00 | 57 | 1014.7 | |
| 20260906034520 | 63 | 0.0 | 1.0 | 0.00 | 0.00 | 0.00 | 55 | 1014.8 | |
| 20260906033520 | 63 | 0.0 | 0.0 | 0.00 | 0.00 | 0.00 | 56 | 1014.6 | |
| 20260906032520 | 63 | 0.0 | 0.0 | 0.00 | 0.00 | 0.00 | 56 | 1014.4 | |
| 20260906031520 | 63 | 0.0 | 2.0 | 0.00 | 0.00 | 0.00 | 57 | 1014.4 | |
| 20260906030520 | 64 | 0.0 | 0.0 | 0.00 | 0.00 | 0.00 | 54 | 1014.2 | |
| 20260906025520 | 65 | 0.0 | 0.0 | 0.00 | 0.00 | 0.00 | 54 | 1014.3 | |
| 20260906024520 | 66 | 0.0 | 0.0 | 0.00 | 0.00 | 0.00 | 51 | 1014.1 | |
| 20260906023539 | 67 | 0.0 | 0.0 | 0.00 | 0.00 | 0.00 | 50 | 1014.2 | |
| 20260906022520 | 69 | 0.0 | 0.0 | 0.00 | 0.00 | 0.00 | 48 | 1014.1 | |
| 20260906021520 | 72 | 0.0 | 0.0 | 0.00 | 0.00 | 0.00 | 45 | 1014.3 | |
| 20260906020520 | 73 | 0.0 | 0.0 | 0.00 | 0.00 | 0.00 | 39 | 1014.3 | |
| 20260906015520 | 74 | 0.0 | 0.0 | 0.00 | 0.00 | 0.00 | 38 | 1014.3 | |
| 20260906014519 | 74 | 0.0 | 0.0 | 0.00 | 0.00 | 0.00 | 41 | 1014.4 | |
| 20260906013520 | 74 | 0.0 | 0.0 | 0.00 | 0.00 | 0.00 | 35 | 1014.4 | |
| 20260906012519 | 74 | 0.0 | 2.0 | 0.00 | 0.00 | 0.00 | 34 | 1014.4 | |
| 20260906011540 | 74 | 0.0 | 1.0 | 0.00 | 0.00 | 0.00 | 32 | 1014.4 | |
| 20260906010539 | 74 | 225 | 2.0 | 4.0 | 0.00 | 0.00 | 0.00 | 33 | 1014.3 |
| 20260906005519 | 74 | 225 | 1.0 | 4.0 | 0.00 | 0.00 | 0.00 | 32 | 1014.4 |
| 20260906004520 | 74 | 225 | 3.0 | 4.0 | 0.00 | 0.00 | 0.00 | 32 | 1014.4 |
| 20260906003520 | 74 | 158 | 1.0 | 2.0 | 0.00 | 0.00 | 0.00 | 30 | 1014.4 |
| 20260906002519 | 74 | 225 | 1.0 | 3.0 | 0.00 | 0.00 | 0.00 | 29 | 1014.5 |
| 20260906001519 | 74 | 225 | 1.0 | 3.0 | 0.00 | 0.00 | 0.00 | 29 | 1014.6 |
| 20260906000520 | 75 | 225 | 3.0 | 6.0 | 0.00 | 0.00 | 0.00 | 28 | 1014.5 |
| 20260905235519 | 74 | 203 | 2.0 | 5.0 | 0.00 | 0.00 | 0.00 | 30 | 1014.6 |
| 20260905234519 | 74 | 158 | 1.0 | 5.0 | 0.00 | 0.00 | 0.00 | 29 | 1014.4 |
| 20260905233519 | 74 | 90 | 2.0 | 6.0 | 0.00 | 0.00 | 0.00 | 31 | 1014.5 |
| 20260905232519 | 74 | 113 | 2.0 | 4.0 | 0.00 | 0.00 | 0.00 | 30 | 1014.6 |
| 20260905231519 | 74 | 113 | 1.0 | 4.0 | 0.00 | 0.00 | 0.00 | 28 | 1014.6 |
| 20260905230519 | 74 | 90 | 2.0 | 6.0 | 0.00 | 0.00 | 0.00 | 32 | 1014.6 |
| 20260905225519 | 74 | 158 | 1.0 | 4.0 | 0.00 | 0.00 | 0.00 | 31 | 1014.8 |
| 20260905224519 | 75 | 158 | 2.0 | 6.0 | 0.00 | 0.00 | 0.00 | 29 | 1014.9 |
| 20260905223519 | 76 | 90 | 2.0 | 4.0 | 0.00 | 0.00 | 0.00 | 29 | 1015.0 |
| 20260905222520 | 76 | 0.0 | 0.0 | 0.00 | 0.00 | 0.00 | 27 | 1015.1 | |
| 20260905221519 | 75 | 0.0 | 3.0 | 0.00 | 0.00 | 0.00 | 29 | 1014.9 | |
| 20260905220519 | 75 | 0.0 | 0.0 | 0.00 | 0.00 | 0.00 | 30 | 1014.9 | |
| 20260905215519 | 74 | 225 | 1.0 | 4.0 | 0.00 | 0.00 | 0.00 | 30 | 1015.1 |
| 20260905214539 | 72 | 0.0 | 3.0 | 0.00 | 0.00 | 0.00 | 30 | 1015.2 | |
| 20260905213519 | 73 | 315 | 2.0 | 5.0 | 0.00 | 0.00 | 0.00 | 32 | 1015.3 |
| 20260905212519 | 74 | 90 | 1.0 | 3.0 | 0.00 | 0.00 | 0.00 | 33 | 1015.3 |
| 20260905211519 | 73 | 23 | 1.0 | 4.0 | 0.00 | 0.00 | 0.00 | 32 | 1015.3 |
| 20260905210519 | 73 | 0 | 2.0 | 6.0 | 0.00 | 0.00 | 0.00 | 33 | 1015.4 |
| 20260905205519 | 73 | 0.0 | 2.0 | 0.00 | 0.00 | 0.00 | 34 | 1015.4 | |
| 20260905204519 | 72 | 315 | 2.0 | 4.0 | 0.00 | 0.00 | 0.00 | 36 | 1015.4 |
| 20260905203519 | 72 | 315 | 2.0 | 5.0 | 0.00 | 0.00 | 0.00 | 36 | 1015.4 |
| 20260905202519 | 71 | 338 | 2.0 | 4.0 | 0.00 | 0.00 | 0.00 | 36 | 1015.5 |
| 20260905201519 | 71 | 0 | 3.0 | 6.0 | 0.00 | 0.00 | 0.00 | 38 | 1015.4 |
| 20260905200519 | 71 | 315 | 2.0 | 7.0 | 0.00 | 0.00 | 0.00 | 37 | 1015.6 |
| 20260905195519 | 70 | 338 | 3.0 | 8.0 | 0.00 | 0.00 | 0.00 | 40 | 1015.7 |
| 20260905194559 | 70 | 23 | 1.0 | 4.0 | 0.00 | 0.00 | 0.00 | 40 | 1015.8 |
| 20260905193520 | 70 | 315 | 2.0 | 5.0 | 0.00 | 0.00 | 0.00 | 42 | 1015.8 |
| 20260905192519 | 69 | 45 | 3.0 | 8.0 | 0.00 | 0.00 | 0.00 | 42 | 1015.8 |
| 20260905191539 | 69 | 0 | 1.0 | 3.0 | 0.00 | 0.00 | 0.00 | 44 | 1016.0 |
| 20260905190519 | 68 | 0 | 3.0 | 8.0 | 0.00 | 0.00 | 0.00 | 43 | 1015.9 |
| 20260905185539 | 68 | 0 | 3.0 | 9.0 | 0.00 | 0.00 | 0.00 | 44 | 1016.1 |
| 20260905184538 | 67 | 23 | 3.0 | 8.0 | 0.00 | 0.00 | 0.00 | 45 | 1016.1 |
| 20260905183519 | 66 | 23 | 1.0 | 4.0 | 0.00 | 0.00 | 0.00 | 46 | 1016.2 |
| 20260905182519 | 66 | 0 | 3.0 | 7.0 | 0.00 | 0.00 | 0.00 | 45 | 1016.3 |
| 20260905181518 | 65 | 23 | 2.0 | 7.0 | 0.00 | 0.00 | 0.00 | 47 | 1016.5 |
| 20260905180538 | 65 | 23 | 1.0 | 7.0 | 0.00 | 0.00 | 0.00 | 47 | 1016.5 |
| 20260905175519 | 65 | 45 | 2.0 | 8.0 | 0.00 | 0.00 | 0.00 | 48 | 1016.6 |
| 20260905174518 | 65 | 23 | 2.0 | 5.0 | 0.00 | 0.00 | 0.00 | 48 | 1016.6 |
| 20260905173518 | 64 | 23 | 2.0 | 5.0 | 0.00 | 0.00 | 0.00 | 49 | 1016.5 |
| 20260905172518 | 63 | 0 | 2.0 | 4.0 | 0.00 | 0.00 | 0.00 | 49 | 1016.5 |
| 20260905171518 | 63 | 0 | 2.0 | 5.0 | 0.00 | 0.00 | 0.00 | 49 | 1016.5 |
| 20260905170519 | 63 | 0 | 3.0 | 8.0 | 0.00 | 0.00 | 0.00 | 50 | 1016.6 |
| 20260905165518 | 63 | 0 | 4.0 | 10.0 | 0.00 | 0.00 | 0.00 | 49 | 1016.4 |
| 20260905164539 | 62 | 0 | 2.0 | 8.0 | 0.00 | 0.00 | 0.00 | 52 | 1016.4 |
| 20260905163519 | 61 | 45 | 1.0 | 4.0 | 0.00 | 0.00 | 0.00 | 53 | 1016.4 |
| 20260905162519 | 60 | 0 | 2.0 | 6.0 | 0.00 | 0.00 | 0.00 | 55 | 1016.2 |
| 20260905161519 | 59 | 0 | 3.0 | 8.0 | 0.00 | 0.00 | 0.00 | 55 | 1016.0 |
| 20260905160520 | 59 | 0 | 4.0 | 8.0 | 0.00 | 0.00 | 0.00 | 56 | 1016.1 |
| 20260905155518 | 58 | 23 | 2.0 | 6.0 | 0.00 | 0.00 | 0.00 | 56 | 1016.2 |
| 20260905154518 | 58 | 0 | 2.0 | 5.0 | 0.00 | 0.00 | 0.00 | 59 | 1016.3 |
| 20260905153518 | 57 | 338 | 2.0 | 3.0 | 0.00 | 0.00 | 0.00 | 61 | 1016.2 |
| 20260905152520 | 55 | 0 | 1.0 | 5.0 | 0.00 | 0.00 | 0.00 | 63 | 1016.2 |
| 20260905151519 | 55 | 0.0 | 2.0 | 0.00 | 0.00 | 0.00 | 64 | 1016.2 | |
| 20260905150518 | 55 | 293 | 2.0 | 4.0 | 0.00 | 0.00 | 0.00 | 66 | 1016.3 |
| 20260905145519 | 55 | 0.0 | 2.0 | 0.00 | 0.00 | 0.00 | 67 | 1016.2 | |
| 20260905144538 | 55 | 0.0 | 1.0 | 0.00 | 0.00 | 0.00 | 66 | 1016.2 | |
| 20260905143540 | 55 | 0.0 | 0.0 | 0.00 | 0.00 | 0.00 | 66 | 1016.3 | |
| 20260905142519 | 54 | 0.0 | 1.0 | 0.00 | 0.00 | 0.00 | 65 | 1016.3 | |
| 20260905141520 | 54 | 0.0 | 0.0 | 0.00 | 0.00 | 0.00 | 64 | 1016.5 | |
| 20260905140520 | 54 | 0.0 | 0.0 | 0.00 | 0.00 | 0.00 | 64 | 1016.4 | |
| 20260905135520 | 54 | 0.0 | 2.0 | 0.00 | 0.00 | 0.00 | 64 | 1016.2 | |
| 20260905134540 | 54 | 0.0 | 0.0 | 0.00 | 0.00 | 0.00 | 65 | 1016.0 | |
| 20260905133559 | 54 | 23 | 1.0 | 5.0 | 0.00 | 0.00 | 0.00 | 65 | 1015.9 |
| 20260905132520 | 54 | 0 | 4.0 | 8.0 | 0.00 | 0.00 | 0.00 | 64 | 1015.6 |
| 20260905131518 | 55 | 23 | 2.0 | 4.0 | 0.00 | 0.00 | 0.00 | 62 | 1015.7 |
| 20260905130520 | 54 | 0.0 | 2.0 | 0.00 | 0.00 | 0.00 | 63 | 1015.7 | |
| 20260905125518 | 54 | 45 | 2.0 | 4.0 | 0.00 | 0.00 | 0.00 | 64 | 1015.5 |
| 20260905124520 | 54 | 23 | 1.0 | 5.0 | 0.00 | 0.00 | 0.00 | 64 | 1015.2 |
| 20260905123520 | 55 | 0.0 | 0.0 | 0.00 | 0.00 | 0.00 | 63 | 1015.5 | |
| 20260905122520 | 55 | 0.0 | 0.0 | 0.00 | 0.00 | 0.00 | 61 | 1015.4 | |
| 20260905121540 | 56 | 0 | 2.0 | 5.0 | 0.00 | 0.00 | 0.00 | 60 | 1015.2 |
| 20260905120520 | 56 | 0 | 4.0 | 7.0 | 0.00 | 0.00 | 0.00 | 60 | 1015.0 |
| 20260905115520 | 56 | 0 | 5.0 | 10.0 | 0.00 | 0.00 | 0.00 | 61 | 1015.0 |
| 20260905114520 | 55 | 0 | 6.0 | 10.0 | 0.00 | 0.00 | 0.00 | 62 | 1014.9 |
| 20260905113520 | 55 | 0 | 4.0 | 7.0 | 0.00 | 0.00 | 0.00 | 63 | 1015.0 |
| 20260905112520 | 55 | 0 | 4.0 | 7.0 | 0.00 | 0.00 | 0.00 | 63 | 1015.0 |
| 20260905111520 | 56 | 0 | 2.0 | 3.0 | 0.00 | 0.00 | 0.00 | 63 | 1015.0 |
| 20260905110520 | 56 | 0.0 | 1.0 | 0.00 | 0.00 | 0.00 | 61 | 1015.0 | |
| 20260905105520 | 56 | 0.0 | 2.0 | 0.00 | 0.00 | 0.00 | 61 | 1015.0 | |
| 20260905104540 | 56 | 0 | 2.0 | 4.0 | 0.00 | 0.00 | 0.00 | 61 | 1015.0 |
| 20260905103520 | 56 | 23 | 2.0 | 3.0 | 0.00 | 0.00 | 0.00 | 61 | 1015.0 |
| 20260905102520 | 56 | 0.0 | 0.0 | 0.00 | 0.00 | 0.00 | 61 | 1015.0 | |
| 20260905101520 | 56 | 0.0 | 1.0 | 0.00 | 0.00 | 0.00 | 60 | 1015.0 | |
| 20260905100520 | 57 | 0 | 3.0 | 5.0 | 0.00 | 0.00 | 0.00 | 59 | 1014.9 |
| 20260905095519 | 57 | 0 | 4.0 | 7.0 | 0.00 | 0.00 | 0.00 | 58 | 1014.9 |
| 20260905094521 | 57 | 0 | 4.0 | 7.0 | 0.00 | 0.00 | 0.00 | 59 | 1014.9 |
| 20260905093520 | 57 | 0 | 4.0 | 6.0 | 0.00 | 0.00 | 0.00 | 59 | 1015.0 |
| 20260905092600 | 57 | 0 | 2.0 | 3.0 | 0.00 | 0.00 | 0.00 | 57 | 1015.0 |
| 20260905091520 | 57 | 0 | 1.0 | 4.0 | 0.00 | 0.00 | 0.00 | 57 | 1015.0 |
| 20260905090519 | 56 | 0.0 | 0.0 | 0.00 | 0.00 | 0.00 | 58 | 1014.9 | |
| 20260905085520 | 56 | 0.0 | 0.0 | 0.00 | 0.00 | 0.00 | 59 | 1014.8 | |
| 20260905084519 | 57 | 0.0 | 1.0 | 0.00 | 0.00 | 0.00 | 58 | 1014.8 | |
| 20260905083520 | 57 | 338 | 3.0 | 5.0 | 0.00 | 0.00 | 0.00 | 57 | 1014.7 |
| 20260905082520 | 57 | 0 | 3.0 | 5.0 | 0.00 | 0.00 | 0.00 | 57 | 1014.4 |
| 20260905081519 | 57 | 0 | 3.0 | 5.0 | 0.00 | 0.00 | 0.00 | 57 | 1014.4 |
| 20260905080519 | 57 | 0 | 4.0 | 6.0 | 0.00 | 0.00 | 0.00 | 58 | 1014.3 |
| 20260905075519 | 57 | 0 | 5.0 | 8.0 | 0.00 | 0.00 | 0.00 | 57 | 1014.3 |
| 20260905074519 | 57 | 0 | 5.0 | 8.0 | 0.00 | 0.00 | 0.00 | 58 | 1014.3 |
| 20260905073520 | 57 | 0 | 4.0 | 9.0 | 0.00 | 0.00 | 0.00 | 58 | 1014.2 |
| 20260905072520 | 56 | 0 | 4.0 | 7.0 | 0.00 | 0.00 | 0.00 | 59 | 1014.0 |
| 20260905071519 | 57 | 0 | 4.0 | 5.0 | 0.00 | 0.00 | 0.00 | 58 | 1014.0 |
| 20260905070520 | 57 | 0 | 3.0 | 5.0 | 0.00 | 0.00 | 0.00 | 57 | 1014.0 |
| 20260905065600 | 57 | 0 | 3.0 | 4.0 | 0.00 | 0.00 | 0.00 | 57 | 1013.9 |
| 20260905064519 | 57 | 0 | 4.0 | 7.0 | 0.00 | 0.00 | 0.00 | 57 | 1013.9 |
| 20260905063519 | 57 | 0 | 5.0 | 8.0 | 0.00 | 0.00 | 0.00 | 55 | 1013.7 |
| 20260905062520 | 57 | 0 | 4.0 | 8.0 | 0.00 | 0.00 | 0.00 | 55 | 1013.8 |